Weather History for KDVK - January, 2013

Change the Weather History Date:

Tuesday, January 22, 2013

  Actual Average (KLEX) Record (KLEX)
Temperature  
Mean Temperature 18 °F 33 °F  
Max Temperature 23 °F 41 °F 73 °F (1999)
Min Temperature 12 °F 25 °F -6 °F (2014)
Degree Days  
Heating Degree Days 48 32  
Month to date heating degree days 704  
Since 1 July heating degree days 2492  
Cooling Degree Days 0 0  
Month to date cooling degree days 0  
Year to date cooling degree days 0  
Moisture  
Dew Point 0 °F    
Average Humidity 49    
Maximum Humidity 67    
Minimum Humidity 31    
Precipitation  
Precipitation 0.00 in 0.10 in 2.38 in (1898)
Month to date precipitation 2.26  
Year to date precipitation 2.26  
Snow  
Snow 0.00 in 0.10 in 9.40 in (1966)
Month to date snowfall 2.6  
Since 1 July snowfall 5.4  
Snow Depth -    
Sea Level Pressure  
Sea Level Pressure 30.33 in    
Wind  
Wind Speed 7 mph (NW)    
Max Wind Speed 13 mph    
Max Gust Speed 16 mph    
Visibility 10 miles    
Events      
T = Trace of Precipitation, MM = Missing Value Source: NWS Daily Summary

Daily Weather History Graph

Daily Weather History Graph

Search for Another Location

Airport or City:

Trip Planner

Search our weather history database for the weather conditions in past years. The results will help you decide how hot, cold, wet, or windy it might be!

Date:

Astronomy

Jan. 22, 2013 Rise Set
Actual Time 7:49 AM EST 5:52 PM EST
Civil Twilight 7:21 AM EST 6:20 PM EST
Nautical Twilight 6:49 AM EST 6:52 PM EST
Astronomical Twilight 6:18 AM EST 7:23 PM EST
Moon 2:15 PM EST (1/22) 4:09 AM EST (1/22)
Length of Visible Light 10h 59m
Length of Day
10h 02m
Waxing Gibbous, 82% of the Moon is Illuminated
Jan 22
Waxing Gibbous
Jan 26
Full
Feb 3
Last Quarter
Feb 10
New
Feb 17
First Quarter

Hourly Weather History & Observations

Time (EST) Temp. Windchill Dew Point Humidity Pressure Visibility Wind Dir Wind Speed Gust Speed Precip Events Conditions
12:15 AM 17.6 °F 10.7 °F 5.0 °F 58% 30.25 in 10.0 mi NW 4.6 mph - N/A   Clear
12:35 AM 17.6 °F 8.2 °F 5.0 °F 58% 30.25 in 10.0 mi NW 6.9 mph - N/A   Clear
12:55 AM 17.6 °F 7.3 °F 5.0 °F 58% 30.25 in 10.0 mi NNW 8.1 mph - N/A   Clear
1:15 AM 17.6 °F 6.4 °F 5.0 °F 58% 30.25 in 10.0 mi North 9.2 mph - N/A   Clear
1:35 AM 14.0 °F 2.0 °F 5.0 °F 67% 30.26 in 10.0 mi North 9.2 mph - N/A   Clear
1:55 AM 14.0 °F 2.9 °F 5.0 °F 67% 30.27 in 10.0 mi North 8.1 mph - N/A   Clear
2:15 AM 14.0 °F 2.9 °F 5.0 °F 67% 30.27 in 10.0 mi NNW 8.1 mph - N/A   Clear
2:55 AM 14.0 °F 5.1 °F 3.2 °F 62% 30.28 in 10.0 mi NNW 5.8 mph - N/A   Clear
3:15 AM 14.0 °F 5.1 °F 3.2 °F 62% 30.29 in 10.0 mi NNW 5.8 mph - N/A   Clear
3:35 AM 14.0 °F 6.5 °F 1.4 °F 57% 30.29 in 10.0 mi NNW 4.6 mph - N/A   Clear
3:55 AM 12.2 °F 1.7 °F 1.4 °F 62% 30.29 in 10.0 mi NNW 6.9 mph - N/A   Clear
4:15 AM 12.2 °F -0.2 °F 1.4 °F 62% 30.28 in 10.0 mi NNW 9.2 mph - N/A   Clear
4:35 AM 12.2 °F 2.9 °F 3.2 °F 67% 30.28 in 10.0 mi NNW 5.8 mph - N/A   Clear
4:55 AM 12.2 °F 2.9 °F 1.4 °F 62% 30.29 in 10.0 mi NW 5.8 mph - N/A   Clear
5:15 AM 12.2 °F 4.3 °F 1.4 °F 62% 30.29 in 10.0 mi NNW 4.6 mph - N/A   Clear
5:35 AM 12.2 °F 2.9 °F 1.4 °F 62% 30.30 in 10.0 mi NW 5.8 mph - N/A   Clear
5:55 AM 12.2 °F 2.9 °F 1.4 °F 62% 30.31 in 10.0 mi NW 5.8 mph - N/A   Clear
6:15 AM 12.2 °F 4.3 °F 1.4 °F 62% 30.31 in 10.0 mi NNW 4.6 mph - N/A   Clear
6:35 AM 12.2 °F 1.7 °F 1.4 °F 62% 30.32 in 10.0 mi NW 6.9 mph - N/A   Clear
6:55 AM 12.2 °F 0.7 °F -0.4 °F 57% 30.33 in 10.0 mi NW 8.1 mph - N/A   Clear
7:15 AM 12.2 °F 0.7 °F -0.4 °F 57% 30.34 in 10.0 mi NW 8.1 mph - N/A   Clear
7:35 AM 12.2 °F 4.3 °F -0.4 °F 57% 30.34 in 10.0 mi NW 4.6 mph - N/A   Clear
7:55 AM 12.2 °F 4.3 °F 1.4 °F 62% 30.35 in 10.0 mi WNW 4.6 mph - N/A   Scattered Clouds
8:15 AM 12.2 °F 0.7 °F 1.4 °F 62% 30.35 in 10.0 mi NW 8.1 mph - N/A   Scattered Clouds
8:35 AM 12.2 °F 0.7 °F 1.4 °F 62% 30.35 in 10.0 mi WNW 8.1 mph - N/A   Clear
8:55 AM 14.0 °F 3.9 °F 1.4 °F 57% 30.36 in 10.0 mi NW 6.9 mph - N/A   Clear
9:15 AM 14.0 °F 3.9 °F -0.4 °F 53% 30.37 in 10.0 mi NNW 6.9 mph - N/A   Clear
9:35 AM 14.0 °F 2.9 °F -0.4 °F 53% 30.37 in 10.0 mi WNW 8.1 mph - N/A   Clear
9:55 AM 14.0 °F 3.9 °F -0.4 °F 53% 30.38 in 10.0 mi NNW 6.9 mph - N/A   Clear
10:15 AM 15.8 °F 5.1 °F -0.4 °F 49% 30.39 in 10.0 mi WNW 8.1 mph - N/A   Clear
10:35 AM 15.8 °F 4.2 °F -0.4 °F 49% 30.39 in 10.0 mi NNW 9.2 mph - N/A   Clear
10:55 AM 17.6 °F 7.3 °F -0.4 °F 45% 30.40 in 10.0 mi NNW 8.1 mph - N/A   Clear
11:15 AM 17.6 °F 6.4 °F -0.4 °F 45% 30.40 in 10.0 mi NW 9.2 mph - N/A   Clear
11:35 AM 17.6 °F 12.3 °F -0.4 °F 45% 30.40 in 10.0 mi NW 3.5 mph - N/A   Clear
11:55 AM 17.6 °F 12.3 °F -4.0 °F 38% 30.39 in 10.0 mi NW 3.5 mph - N/A   Clear
12:15 PM 19.4 °F 9.5 °F -4.0 °F 36% 30.38 in 10.0 mi NW 8.1 mph - N/A   Clear
12:35 PM 19.4 °F 10.4 °F -4.0 °F 36% 30.37 in 10.0 mi WNW 6.9 mph - N/A   Clear
12:55 PM 19.4 °F 11.5 °F -2.2 °F 39% 30.35 in 10.0 mi NNW 5.8 mph - N/A   Clear
1:15 PM 21.2 °F 10.1 °F -2.2 °F 36% 30.34 in 10.0 mi NW 10.4 mph - N/A   Clear
1:35 PM 21.2 °F 10.1 °F -2.2 °F 36% 30.33 in 10.0 mi WNW 10.4 mph - N/A   Clear
1:55 PM 23.0 °F 13.1 °F -2.2 °F 33% 30.33 in 10.0 mi WNW 9.2 mph - N/A   Clear
2:15 PM 21.2 °F 12.6 °F -2.2 °F 36% 30.32 in 10.0 mi NNW 6.9 mph - N/A   Clear
2:35 PM 23.0 °F 13.9 °F -0.4 °F 36% 30.32 in 10.0 mi NNW 8.1 mph - N/A   Clear
2:55 PM 23.0 °F 11.1 °F -4.0 °F 31% 30.32 in 10.0 mi WNW 12.7 mph 16.1 mph N/A   Clear
3:15 PM 23.0 °F 12.4 °F -4.0 °F 31% 30.32 in 10.0 mi WNW 10.4 mph - N/A   Clear
3:35 PM 23.0 °F 14.7 °F -0.4 °F 36% 30.32 in 10.0 mi WNW 6.9 mph - N/A   Scattered Clouds
3:55 PM 23.0 °F 13.1 °F -0.4 °F 36% 30.33 in 10.0 mi NW 9.2 mph - N/A   Scattered Clouds
4:15 PM 23.0 °F 11.7 °F -0.4 °F 36% 30.33 in 10.0 mi NW 11.5 mph 16.1 mph N/A   Clear
4:35 PM 23.0 °F 11.7 °F -4.0 °F 31% 30.34 in 10.0 mi NW 11.5 mph - N/A   Scattered Clouds
4:55 PM 23.0 °F 11.7 °F -4.0 °F 31% 30.33 in 10.0 mi WNW 11.5 mph - N/A   Mostly Cloudy
5:15 PM 21.2 °F 13.6 °F -4.0 °F 33% 30.32 in 10.0 mi NW 5.8 mph - N/A   Overcast
5:35 PM 21.2 °F 10.9 °F -4.0 °F 33% 30.33 in 10.0 mi NW 9.2 mph - N/A   Overcast
5:55 PM 21.2 °F 10.9 °F -4.0 °F 33% 30.34 in 10.0 mi WNW 9.2 mph - N/A   Overcast
6:15 PM 21.2 °F 13.6 °F -4.0 °F 33% 30.34 in 10.0 mi West 5.8 mph - N/A   Overcast
6:35 PM 21.2 °F 11.7 °F -2.2 °F 36% 30.33 in 10.0 mi WNW 8.1 mph - N/A   Overcast
6:55 PM 21.2 °F 13.6 °F -2.2 °F 36% 30.34 in 10.0 mi WNW 5.8 mph - N/A   Overcast
7:15 PM 21.2 °F 12.6 °F -0.4 °F 39% 30.34 in 10.0 mi West 6.9 mph - N/A   Overcast
7:35 PM 21.2 °F 13.6 °F -0.4 °F 39% 30.34 in 10.0 mi WNW 5.8 mph - N/A   Overcast
7:55 PM 19.4 °F 12.8 °F -0.4 °F 42% 30.34 in 10.0 mi WNW 4.6 mph - N/A   Scattered Clouds
8:15 PM 19.4 °F 12.8 °F -0.4 °F 42% 30.34 in 10.0 mi WNW 4.6 mph - N/A   Scattered Clouds
8:35 PM 19.4 °F 14.3 °F -0.4 °F 42% 30.33 in 10.0 mi WNW 3.5 mph - N/A   Clear
8:55 PM 19.4 °F - 1.4 °F 46% 30.33 in 10.0 mi Calm Calm - N/A   Clear
9:15 PM 17.6 °F - 1.4 °F 49% 30.33 in 10.0 mi Calm Calm - N/A   Clear
9:35 PM 19.4 °F - 1.4 °F 46% 30.33 in 10.0 mi Calm Calm - N/A   Clear
9:55 PM 19.4 °F - 1.4 °F 46% 30.33 in 10.0 mi Calm Calm - N/A   Clear
10:15 PM 15.8 °F - 3.2 °F 58% 30.33 in 10.0 mi Calm Calm - N/A   Clear
10:35 PM 17.6 °F - 1.4 °F 49% 30.34 in 10.0 mi Calm Calm - N/A   Clear
10:55 PM 17.6 °F - 3.2 °F 53% 30.34 in 10.0 mi Calm Calm - N/A   Mostly Cloudy
11:15 PM 17.6 °F - 5.0 °F 58% 30.34 in 10.0 mi Calm Calm - N/A   Overcast
11:35 PM 17.6 °F - 5.0 °F 58% 30.34 in 10.0 mi Calm Calm - N/A   Overcast
11:55 PM 17.6 °F - 5.0 °F 58% 30.35 in 10.0 mi Calm Calm - N/A   Mostly Cloudy